Location: Arlington
(40.6323°N, 74.1651°W)
Time: 02:10:15
(UTC+00:00)

Cosmos 2346 Rocket - Pass Details

Date: 22 November 2019
Orbit: 935 x 981 km, 82.9° (Epoch: 14 December)

Event Time Altitude Azimuth Distance (km) Brightness Sun altitude
Rises 22:33:18 0° 181° (S) 3,656 7.7 -11.3°
Reaches altitude 10° 22:35:48 10° 180° (S) 2,708 7.0 -11.7°
Maximum altitude 22:42:00 78° 95° (E) 990 4.4 -12.9°
Drops below altitude 10° 22:48:09 10° 10° (N) 2,695 6.6 -14.0°
Sets 22:50:39 0° 9° (N) 3,638 7.3 -14.4°
